Weather Roundup
Issued by NWS Corpus Christi, TX

Home | Current Version | Previous Version | Text Only | Print | Product List | Glossary On
Versions: 1 2 3 4 5 6 7 8 9 10 11 12 13 14 15 16 17 18 19 20 21 22 23 24 25 26 27 28 29 30 31 32 33 34 35 36 37 38 39 40 41 42 43 44 45 46 47 48 49 50
000
ASUS44 KCRP 031810
HRRCRP

SOUTH TEXAS REGIONAL WEATHER ROUNDUP
NATIONAL WEATHER SERVICE CORPUS CHRISTI TX
100 PM CDT TUE MAY 03 2016


TXZ229>244-031900-
...CORPUS CHRISTI AREA OBSERVATIONS...

CITY           SKY/WX    TMP DP  RH WIND       PRES   REMARKS
CORPUS CHRISTI PTSUNNY   77  51  40 NE8       30.04F
NAS CORPUS CHR MOSUNNY   75  54  47 N15       30.04F
ROCKPORT       SUNNY     78  49  35 N12G21    30.04F
KINGSVILLE NAS PTSUNNY   76  56  49 NE9       30.05F
ALICE          SUNNY     79  49  34 VRB6G17   30.04F
FALFURRIAS     CLOUDY    73  49  43 N3        30.06F
$$

...VICTORIA AREA OBSERVATIONS...

CITY           SKY/WX    TMP DP  RH WIND       PRES   REMARKS
VICTORIA       SUNNY     75  49  39 N10       30.06F
BEEVILLE       FAIR      78  51  40 NE12G18   30.05F
PLEASANTON     SUNNY     73  47  39 NE6       30.09F
SAN ANTONIO    MOSUNNY   74  47  38 E8        30.09F
$$

...LAREDO AREA OBSERVATIONS...

CITY           SKY/WX    TMP DP  RH WIND       PRES   REMARKS
LAREDO         SUNNY     75  51  43 VRB5      30.07F
COTULLA        SUNNY     78  46  32 SE7       30.07F
DEL RIO        SUNNY     73  53  49 S7        30.07F
MCALLEN        CLOUDY    72  54  53 NW8       30.08F
HEBBRONVILLE   CLOUDY    73  48  40 NE6       30.07F
$$

...OTHER TEXAS OBSERVATIONS...

CITY           SKY/WX    TMP DP  RH WIND       PRES   REMARKS
BROWNSVILLE    CLOUDY    72  61  68 N9        30.05F
HOUSTON        SUNNY     71  50  47 N8G17     30.04F
COL. STATION   SUNNY     70  49  47 N14       30.07F
AUSTIN         SUNNY     72  48  42 NE16      30.08F
WACO           SUNNY     71  47  42 N9        30.11F
FORT WORTH     MOSUNNY   70  43  37 N9        30.11F
WICHITA FALLS  SUNNY     70  47  43 VRB7      30.11F
LUBBOCK        PTSUNNY   71  38  29 SW9       30.10F
EL PASO        MOSUNNY   74  36  25 VRB3      30.10F
$$

...MARINE OBSERVATIONS...

STATION/POSITION TIME  SKY/WX   TEMP    WIND        PRES    VSBY  WAVE   SWELL
                                AIR SEA DIR/SP/G                  HT/PER HT/PER
                 (UTC)          (F)     (DEG/KT/KT) (MB)    (MI)  (FT/S) (FT/S)
PORT ARANSAS     1800            69 76   10/ 12/ 16 1017.8F
BUOY 90 E PORT A 1750            70 77   20/ 12/ 16 1016.2F         4/ 6   2/13
BUOY 45 SE BAFFI 1750            70 75   10/ 12/ 16 1016.6S         5/ 6   3/ 6
BUOY 200 E PT IS 1750                                 N/A           5/ 6   2/ 7
BUOY 15 E GALVES 1750            67 75  340/ 10/ 12 1016.3F         2/ 7   2/ 7
$$



USA.gov is the U.S. government's official web portal to all federal, state and local government web resources and services.